Regional Weather Roundup
Issued by NWS Wakefield, VA

Home | Current Version | Previous Version | Graphics & Text | Print | Product List | Glossary On
Versions: 1 2 3 4 5 6 7 8 9 10 11 12 13 14 15 16 17 18 19 20 21 22 23 24 25 26 27 28 29 30 31 32 33 34 35 36 37 38 39 40 41 42 43 44 45 46 47 48 49 50
000
ASUS41 KAKQ 250216
RWRAKQ

REGIONAL WEATHER ROUNDUP
NATIONAL WEATHER SERVICE WAKEFIELD VA
1000 PM EDT THU MAY 24 2018

Note: "fair" indicates few or no clouds below 12,000 feet with no
significant weather and/or obstructions to visibility. * = Denotes
station may not report precipitation (e.g., rain,snow,etc.),
thunder or fog.

VAZ042-051-052>054-056-250300-
NORTHERN VIRGINIA

CITY           SKY/WX    TMP DP  RH WIND       PRES   REMARKS
WASH NATIONAL  FAIR      72  56  57 S9        30.14R
DULLES         FAIR      67  55  65 S6        30.14R
FORT BELVOIR   FAIR      63  59  87 CALM      30.15R
QUANTICO       FAIR      70  61  73 W3        30.15R
FREDERICKSBRG* FAIR      67  58  72 CALM      30.14S
STAFFORD*      FAIR      61  61 100 CALM      30.18S
WARRENTON      FAIR      60  55  84 CALM      30.15S HAZE
CULPEPER*      FAIR      61  56  84 CALM      30.16S
MANASSAS*      FAIR      62  59  90 CALM      30.15R
LEESBURG*      FAIR      68  59  73 SW6       30.15R
WINCHESTER     FAIR      63  50  63 CALM      30.17S
FRONT ROYAL*   FAIR      64  52  63 S3        30.15R
LURAY*         FAIR      63  54  72 CALM      30.18R
$$

VAZ048-049-060>072-079>083-250300-
CENTRAL AND SOUTH CENTRAL VIRGINIA

CITY           SKY/WX    TMP DP  RH WIND       PRES   REMARKS
RICHMOND       FAIR      69  62  78 SE6       30.16R
CHESTERFIELD*  FAIR      66  61  84 CALM      30.17R
PETERSBURG*    FAIR      63  60  91 CALM      30.17R
HANOVER        FAIR      66  61  84 CALM      30.17R
TAPPAHANNOCK*  FAIR      67  62  82 CALM      30.17R
QUINTON*       FAIR      68  64  85 S3        30.16R
CHARLOTTSVILLE FAIR      68  55  63 CALM      30.16R
GORDONSVILLE*  FAIR      64  59  85 CALM      30.16R
ORANGE*        FAIR      61  55  82 CALM      30.16S
LOUISA*        FAIR      57  55  94 CALM      30.21R
BUMPASS*       FAIR      64  60  86 CALM      30.16S
FARMVILLE*     FAIR     N/A N/A N/A CALM      30.16R
CREWE*         FAIR      63  63 100 CALM      30.17R
FORT PICKETT*  FAIR      67  60  78 SW5       30.17R
CHASE CITY*    FAIR      66  64  90 CALM      30.17R
CLARKSVILLE*   FAIR      66  66 100 CALM      30.16S
SOUTH HILL*    FAIR      65  65  99 CALM      30.22R
LAWRENCEVILLE* FAIR      66  61  84 CALM      30.16R
EMPORIA*       FAIR     N/A N/A N/A SE3       30.18R
$$

VAZ088>098-250300-
SOUTHEAST VIRGINIA

CITY           SKY/WX    TMP DP  RH WIND       PRES   REMARKS
NORFOLK        FAIR      70  63  78 SE5       30.17R
VIRGINIA BEACH FAIR      66  63  90 CALM      30.17R
NORFOLK NAVAL  FAIR      69  60  73 SE3       30.18R
WEST POINT*    FAIR      66  60  81 CALM      30.18S
SALUDA*        FAIR      67  63  86 S5        30.16S
NEWPORT NEWS   FAIR      64  60  87 NE3       30.17R
LANGLEY AFB    FAIR      70  65  83 SW5       30.17R
FORT EUSTIS    FAIR      70  62  75 CALM      30.15R
WILLIAMSBURG*  FAIR      68  61  77 CALM      30.17S
HR EXEC AP*    FAIR      61  60  97 CALM      30.18R
FRANKLIN*      FAIR      67  60  79 CALM      30.17S
US460-WAKEFLD  FAIR      68  61  78 CALM      30.17R
$$

VAZ020-022-025-037-045-250300-
WEST CENTRAL AND SOUTHWEST VIRGINIA

CITY           SKY/WX    TMP DP  RH WIND       PRES   REMARKS
STAUNTON*      FAIR      68  54  61 CALM      30.20S
WAYNESBORO*    FAIR      68  53  59 S3        30.20R
HOT SPRINGS VA FAIR      63  49  62 S8        30.29R
LYNCHBURG      FAIR      63  57  81 CALM      30.18S
DANVILLE       FAIR      65  63  93 E3        30.16S
SOUTH BOSTON*  FAIR      65  62  88 CALM      30.16S
MARTINSVILLE   FAIR      64  62  93 CALM      30.20R
ROANOKE        FAIR      72  58  61 SE3       30.20R
BLACKSBURG     FAIR      69  59  71 CALM      30.25S
DUBLIN*        MOCLDY    69  60  73 SE3       30.23S
MARION*        FAIR      69  63  81 NE6       30.25R
HILLSVILLE*    FAIR      65  61  87 CALM      30.24R
RICHLANDS*     FAIR      69  45  41 SE5       30.20S
WISE*          MOCLDY    72  61  68 S5        30.20R
ABINGDON*      FAIR      71  63  75 E3        30.17S
$$

MDZ021>025-VAZ099-100-250300-
SOUTHERN MARYLAND AND THE DELMARVA PENINSULA

CITY           SKY/WX    TMP DP  RH WIND       PRES   REMARKS
PATUXENT RIVER FAIR      71  62  73 S6        30.15R
BAY BRIDGE APT FAIR      70  54  56 SE3       30.14R
LEONARDTOWN    FAIR      66  59  77 SE3       30.17R
DOVER          FAIR      65  55  70 S7        30.14R
GEORGETOWN     FAIR      65  56  72 SW5       30.17R
EASTON         CLEAR     72  57  60 MISG      30.18R
CAMBRIDGE        N/A     68  61  77 S5        30.16R
SALISBURY      FAIR      63  58  83 S5        30.16R
TANGIER        NOT AVBL
OCEAN CITY     FAIR      66  58  75 SW6       30.17R
WALLOPS ISLAND FAIR      64  60  87 S5        30.18R
ACCOMACK*      FAIR      63  60  91 SE3       30.18R
$$

NCZ012>017-030>032-250300-
NORTH CENTRAL AND EASTERN NORTH CAROLINA

CITY           SKY/WX    TMP DP  RH WIND       PRES   REMARKS
ROANOKE RAPIDS FAIR      68  63  83 CALM      30.17R
RALEIGH        FAIR      70  60  70 CALM      30.16R
ELIZABETH CITY FAIR      69  67  93 E3        30.18R
AHOSKIE*       FAIR      66  59  79 CALM      30.18R
EDENTON*       FAIR      67  61  82 CALM      30.18R
CURRITUCK*     NOT AVBL
KILL DEVIL HLS FAIR      66  65  96 CALM      30.17R
MANTEO         FAIR      65  63  91 NE3       30.18S
CAPE HATTERAS  FAIR      69  59  70 NE6       30.16S
TARBORO*       NOT AVBL
GOLDSBORO      FAIR      73  63  72 CALM      30.15R
WASHINGTON     FAIR      67  62  83 CALM      30.18R
GREENVILLE     FAIR      72  63  73 CALM      30.18S
NEW BERN       FAIR      67  62  84 CALM      30.17R
WILMINGTON     CLOUDY    72  67  84 CALM      30.15R
$$

VAZ048-250300-
ELSEWHERE

CITY           SKY/WX    TMP DP  RH WIND       PRES   REMARKS
HARRISBURG PA  FAIR      70  53  54 SW5       30.10R
BALTIMORE      FAIR      67  53  61 CALM      30.13R
ANNAPOLIS      FAIR      71  57  61 CALM      30.14R
ANDREWS AFB    FAIR      67  54  63 CALM      30.14R
PHILADELPHIA   FAIR      69  47  45 SW8       30.13R
HENDERSON NC   FAIR      64  59  83 CALM      30.17S
GREENSBORO     FAIR      73  61  65 E5        30.16R
ROCKY MOUNT    FAIR      72  60  66 CALM      30.17R
$$

VAZ100-250300-
MARINE

STATION/POSITION TIME  TEMP    WIND        PRES    WAVE   SWELL
                       AIR SEA DIR/SP/G            HT/PER HT/PER
                 (UTC) (F)     (DEG/KT/KT) (MB)    (FT/S) (FT/S)
BRANDYWINE LGT   0136   67     190/ 12/ 14 1021.3R
CAPE MAY NJ      0136   64 67  170/  6/  8 1020.5R
LEWES DE         0136   67 68  190/  5/  7 1020.9R
15NM E FENWICK I 0150   61 62  190/  6/  6 1021.8R   2/ 8   2/ 8
OCEAN-CITY-INLET 0136   66 67  210/  8/ 10 1022.0R
WACHAPREAGUE VA  0136   67 78  120/  4/  6 1022.0R
THOMAS POINT MD  0200   73 69  230/  5/  6 1021.6R
GOOSES REEF MD   0200   74     180/ 10/ 12 1021.2    0
COVE POINT MD    0136   73     190/ 12/ 13 1021.6R
SOLOMONS ISLAND  0136   72 74  170/  6/  7 1020.9R
BISHOPS HEAD MD  0136   73 79  160/ 13/ 15 1021.7R
PINEY POINT MD   0148          190/ 12/ 14   N/A
POTOMAC MD       0200   72 74  180/ 10/ 12 1020.8    1/ 2
CAMBRIDGE MD     0136   72 76              1021.9R
LEWISETTA VA     0136   71 77  190/  8/ 10 1021.3R
RAPPAHANNOCK LGT 0148          140/  7/  8 1022.4R
STINGRAY PT      0200   72 74  190/ 10/ 12 1020.7    1/ 2
YORK RVR RNG VA  0136   71     150/ 11/ 12 1022.1R
YORKTOWN VA      0142   71 75  140/  3/  4 1021.2R
DOMINION TERM VA 0142   74     150/  7/  7 1021.7R
KIPTOPEKE VA     0142      72  120/  5/  7   N/A
CAPE HENRY VA    0142   69     140/  7/  9   N/A
WILLOUBY STN VA  0148          120/  4/  4   N/A
S CRANEY ISL VA  0142   74     160/  6/  8 1021.3R
CAPE HENRY BUOY  0200      70                N/A     2/ 8
1ST LANDING BUOY 0200   69 71  170/  8/  8 1021.6    1/ 4
64NM E OF VA BCH 0150   65 67  110/  4/  4 1022.4R   2/ 8   2/ 8
DUCK PIER NC     0142   70 72  110/  6/  6 1021.5R
44100 DUCK FRF   0115      73                N/A     2/ 8
44056 DUCK FRF   0200      72                N/A     1/ 8
OREGON INLET NC  0142   69 76   40/  4/  6 1021.5R
HATTERAS NC      0142   71 77   80/  3/  5 1021.0R
DIAMOND SHLS NC  0150   76 78   30/ 10/ 14 1021.3R   2/ 9   2/ 9
CAPE LOOKOUT NC  0200           60/  9/ 10 1021.4R
$$



USA.gov is the U.S. government's official web portal to all federal, state and local government web resources and services.